Date,TemperatureHighF,TemperatureAvgF,TemperatureLowF,DewpointHighF,DewpointAvgF,DewpointLowF,HumidityHigh,HumidityAvg,HumidityLow,PressureMaxIn,PressureMinIn,WindSpeedMaxMPH,WindSpeedAvgMPH,GustSpeedMaxMPH,PrecipitationSumIn
2013-1-1,50,48,44,49,42,29,100,82,44,30.23,30.07,6,1,13,0.45
2013-1-2,53,49,45,49,44,41,100,85,69,30.26,30.03,6,2,18,0.32
2013-1-3,46,42,38,44,40,30,100,91,68,30.40,30.22,10,2,15,0.00
2013-1-4,52,41,34,30,26,22,80,58,35,30.47,30.35,11,4,19,0.00
2013-1-5,49,42,31,33,27,23,76,56,40,30.49,30.34,8,2,16,0.00
2013-1-6,57,46,41,46,39,34,91,76,60,30.34,30.14,9,3,21,0.00
2013-1-7,54,43,31,35,32,29,95,69,44,30.53,30.32,5,1,9,0.00
2013-1-8,52,39,27,41,35,27,100,86,62,30.57,30.47,4,0,6,0.00
2013-1-9,56,51,45,53,48,41,100,90,82,30.57,30.50,2,0,3,0.00
2013-1-10,66,56,48,57,52,48,100,88,69,30.64,30.49,6,1,9,0.01
2013-1-11,55,51,50,54,51,50,100,100,91,30.50,30.27,6,0,8,0.82
2013-1-12,73,59,51,69,58,51,100,96,75,30.29,30.22,3,0,7,0.04
2013-1-13,68,61,54,64,59,54,100,95,83,30.24,30.18,7,2,12,0.00
2013-1-14,68,62,52,66,62,51,100,99,91,30.24,30.16,6,1,10,0.45
2013-1-15,54,51,46,54,51,46,100,100,96,30.27,30.18,7,1,12,0.99
2013-1-16,51,48,44,51,48,44,100,100,100,30.18,30.09,2,0,3,0.59
2013-1-17,52,48,38,52,48,37,100,100,93,30.31,29.90,10,2,17,2.92
2013-1-18,55,41,31,38,33,29,100,74,41,30.62,30.31,8,3,13,0.53
2013-1-19,55,40,26,37,32,26,100,76,41,30.61,30.27,7,1,10,0.00
2013-1-20,67,52,38,41,34,29,80,53,37,30.27,30.15,8,3,13,0.00
2013-1-21,63,48,37,35,30,20,83,52,33,30.20,30.05,9,3,15,0.00
2013-1-22,43,35,28,20,13,8,56,41,24,30.36,30.15,8,4,16,0.00
2013-1-23,50,37,27,30,20,9,84,52,38,30.44,30.18,8,2,11,0.00
2013-1-24,47,38,28,33,19,1,97,54,15,30.60,30.11,12,4,21,0.00
2013-1-25,30,26,22,29,20,11,100,79,51,30.61,30.21,4,1,7,0.00
2013-1-26,53,41,25,39,32,25,100,75,40,30.45,30.20,7,2,18,0.02
2013-1-27,44,36,27,36,31,26,100,82,67,30.66,30.45,6,1,8,0.01
2013-1-28,59,46,39,51,41,35,100,85,60,30.58,30.36,7,1,11,0.00
2013-1-29,69,56,39,61,52,39,100,88,68,30.37,30.15,6,2,11,0.08
2013-1-30,67,62,50,65,61,48,100,96,82,30.15,29.60,15,3,22,1.49
2013-1-31,52,44,34,48,28,23,95,57,33,30.14,29.68,8,3,14,0.01
2013-2-1,41,36,28,36,19,12,84,53,32,30.46,30.05,12,5,26,0.00
2013-2-2,46,34,23,37,23,13,96,67,35,30.48,30.15,12,2,26,0.00
2013-2-3,55,42,30,38,31,26,100,68,34,30.15,29.98,10,3,21,0.00
2013-2-4,53,42,32,32,27,21,75,56,40,30.24,30.11,11,3,17,0.00
2013-2-5,66,50,37,44,34,30,82,57,30,30.11,30.00,9,1,14,0.00
2013-2-6,67,50,36,39,35,32,96,62,29,30.33,30.11,7,1,10,0.00
2013-2-7,48,43,37,45,38,31,100,85,55,30.38,30.13,9,1,14,0.67
2013-2-8,58,48,40,51,42,31,100,80,51,30.24,30.02,14,4,23,0.31
2013-2-9,64,46,36,33,30,17,84,57,16,30.45,30.22,11,3,15,0.00
2013-2-10,55,44,34,46,36,31,100,77,44,30.54,30.28,6,1,8,0.35
2013-2-11,60,52,45,58,51,36,100,96,48,30.29,30.09,7,1,15,0.48
2013-2-12,60,53,45,47,33,23,100,50,25,30.24,30.04,9,2,16,0.04
2013-2-13,52,46,42,48,43,34,100,93,71,30.07,29.77,10,2,20,0.09
2013-2-14,55,44,34,40,35,31,98,73,54,30.18,29.99,11,3,16,0.01
2013-2-15,63,46,30,42,35,30,100,72,36,30.21,30.05,8,2,16,0.00
2013-2-16,42,38,29,35,27,17,90,65,44,30.14,29.96,10,4,21,0.00
2013-2-17,44,33,26,19,14,11,64,46,28,30.37,30.14,14,5,31,0.00
2013-2-18,56,39,24,31,24,16,81,57,34,30.48,30.30,8,1,13,0.00
2013-2-19,55,45,37,45,35,21,100,70,36,30.30,29.98,7,2,15,0.22
2013-2-20,55,44,36,22,15,8,50,32,15,30.23,30.15,11,3,15,0.01
2013-2-21,60,44,28,44,23,14,100,47,24,30.35,30.19,7,1,9,0.20
2013-2-22,43,40,39,43,40,38,100,99,92,30.39,30.22,3,0,7,0.60
2013-2-23,48,42,38,47,42,38,100,100,96,30.25,29.96,2,0,4,0.34
2013-2-24,66,52,38,44,36,27,100,62,28,30.14,29.97,11,3,14,0.01
2013-2-25,47,41,35,35,32,30,93,71,57,30.29,30.12,8,2,13,0.00
2013-2-26,41,38,34,41,38,34,100,99,90,30.19,29.72,9,2,16,1.42
2013-2-27,59,46,31,43,39,31,100,79,55,29.92,29.77,8,2,13,0.01
2013-2-28,51,43,36,40,32,28,91,67,50,30.01,29.85,11,4,18,0.00
2013-3-1,48,41,35,34,32,29,84,71,57,30.05,29.99,10,4,28,0.00
2013-3-2,49,40,33,37,32,25,100,73,48,30.05,29.95,12,4,21,0.02
2013-3-3,41,33,29,25,21,18,72,61,46,30.12,30.03,14,7,25,0.01
2013-3-4,57,42,30,30,22,18,70,48,24,30.26,30.12,11,4,21,0.00
2013-3-5,50,44,39,47,40,29,100,86,61,30.18,29.77,7,1,13,0.57
2013-3-6,44,38,32,38,27,-100,86,72,56,30.21,29.79,15,7,31,0.41
2013-3-7,55,42,33,35,30,26,86,66,33,30.37,30.21,11,4,20,0.00
2013-3-8,62,43,27,32,28,25,96,61,27,30.43,30.30,6,2,10,0.00
2013-3-9,64,46,30,36,31,27,90,60,30,30.48,30.34,7,1,9,0.00
2013-3-10,66,51,36,42,38,33,92,64,34,30.42,30.28,7,2,11,0.00
2013-3-11,60,53,48,52,47,40,90,81,72,30.30,30.03,3,1,4,0.00
2013-3-12,64,55,48,55,43,32,100,69,37,30.13,29.88,11,5,18,1.65
2013-3-13,58,46,32,37,30,23,96,57,28,30.29,30.12,9,4,18,0.58
2013-3-14,56,42,31,23,20,13,65,44,21,30.42,30.28,14,6,24,0.67
2013-3-15,72,54,37,41,31,18,71,44,26,30.30,30.02,8,3,14,0.00
2013-3-16,69,60,50,50,47,44,87,65,48,30.04,29.98,6,2,10,0.00
2013-3-17,77,61,51,53,49,45,86,65,37,30.20,29.99,8,3,13,0.00
2013-3-18,51,43,40,46,42,40,100,97,82,30.25,30.01,8,3,12,0.60
2013-3-19,65,51,39,48,33,17,100,58,23,30.21,29.96,12,4,23,0.01
2013-3-20,59,50,43,35,18,14,72,29,20,30.24,29.93,11,4,20,0.59
2013-3-21,46,37,29,35,20,16,86,51,33,30.06,29.94,12,5,19,0.01
2013-3-22,53,41,29,30,22,16,68,48,31,30.18,30.06,9,3,14,0.00
2013-3-23,59,47,40,47,39,28,98,74,49,30.15,30.01,6,1,9,0.00
2013-3-24,47,44,40,46,43,40,100,98,94,30.05,29.68,10,2,16,0.84
2013-3-25,47,41,36,40,30,-8,100,70,12,30.03,29.67,10,3,19,0.03
2013-3-26,49,39,34,30,28,25,77,64,45,30.30,30.02,10,6,19,0.84
2013-3-27,56,43,36,31,28,25,74,57,36,30.38,30.28,11,5,24,0.01
2013-3-28,61,46,32,28,25,20,82,47,23,30.42,30.29,10,4,17,0.00
2013-3-29,66,47,30,43,31,25,86,58,25,30.46,30.29,8,2,12,0.00
2013-3-30,66,54,45,50,46,42,100,77,44,30.35,30.18,7,2,10,0.06
2013-3-31,70,57,49,59,52,-100,100,90,62,30.19,29.97,9,2,21,0.24
2013-4-1,73,62,54,57,46,39,97,58,33,30.11,29.97,12,4,18,0.01
2013-4-2,68,56,46,42,32,24,67,43,24,30.27,30.11,9,3,14,0.24
2013-4-3,60,54,46,35,27,21,52,36,27,30.39,30.24,7,2,10,0.00
2013-4-4,52,43,37,40,34,25,100,76,38,30.39,30.10,10,2,17,1.00
2013-4-5,67,52,39,49,43,39,100,75,42,30.19,30.01,8,2,13,0.06
2013-4-6,71,55,38,44,39,35,97,61,28,30.34,30.19,7,2,11,1.00
2013-4-7,71,58,41,51,46,40,95,67,45,30.36,30.23,8,2,13,0.00
2013-4-8,78,64,50,59,54,47,97,72,44,30.28,30.19,10,2,14,0.00
2013-4-9,84,68,51,60,56,50,100,70,41,30.33,30.23,9,2,16,0.00
2013-4-10,86,71,54,62,58,54,100,68,39,30.25,30.09,9,2,16,0.00
2013-4-11,80,70,63,69,62,57,100,76,54,30.11,29.86,11,3,17,0.03
2013-4-12,83,73,61,68,51,40,100,51,25,29.96,29.80,10,4,18,0.79
2013-4-13,79,66,56,43,39,32,60,40,18,30.16,29.97,10,4,17,0.05
2013-4-14,72,60,45,55,46,40,92,63,34,30.23,30.11,5,1,9,0.78
2013-4-15,67,60,55,61,58,55,100,94,79,30.33,30.11,5,1,7,0.47
2013-4-16,78,67,59,64,61,59,100,84,55,30.42,30.31,5,1,8,0.01
2013-4-17,79,64,58,70,62,58,100,94,62,30.40,30.27,7,1,10,0.54
2013-4-18,79,67,57,67,62,57,100,87,57,30.29,30.12,5,1,8,0.01
2013-4-19,67,64,51,67,63,43,100,96,73,30.12,29.88,8,2,14,1.17
2013-4-20,68,54,43,44,35,28,83,52,25,30.41,30.06,12,4,18,0.01
2013-4-21,65,52,36,46,37,-100,100,65,38,30.55,30.40,7,2,13,1.07
2013-4-22,65,54,44,45,42,9,92,67,13,30.54,30.33,8,2,13,0.00
2013-4-23,73,54,36,55,46,36,100,76,45,30.41,30.23,6,1,9,0.00
2013-4-24,75,60,45,62,55,45,100,85,57,30.27,30.14,7,2,13,0.00
2013-4-25,75,61,49,60,42,28,97,55,24,30.43,30.19,6,2,12,0.00
2013-4-26,70,57,39,52,41,30,95,59,31,30.56,30.42,7,1,12,0.00
2013-4-27,60,55,53,58,53,50,100,94,82,30.50,30.39,1,0,3,0.82
2013-4-28,54,53,51,54,53,51,100,100,100,30.39,30.18,3,0,4,2.33
2013-4-29,73,60,53,65,58,28,100,92,25,30.20,30.06,5,1,9,0.48
2013-4-30,74,60,50,65,57,50,100,91,67,30.23,30.12,6,1,8,2.25
2013-5-4,56,54,53,54,53,52,100,97,89,30.16,30.11,6,2,9,0.00
2013-5-5,55,51,49,55,51,49,100,100,100,30.13,29.96,8,2,13,4.25
2013-5-6,67,58,50,56,53,48,100,85,55,30.04,29.93,7,1,10,1.19
2013-5-7,71,56,45,59,52,45,100,88,52,30.10,30.00,5,1,9,4.05
2013-5-8,75,62,50,62,57,50,100,85,58,30.18,30.05,5,1,7,0.01
2013-5-9,84,67,56,71,60,55,100,81,41,30.23,30.14,6,2,11,0.08
2013-5-10,79,66,55,67,59,-100,100,84,57,30.24,30.11,7,1,16,0.01
2013-5-11,78,68,59,68,63,59,100,85,64,30.12,29.96,6,1,12,0.19
2013-5-12,74,63,57,62,46,-100,100,58,30,30.19,30.01,8,4,18,0.11
2013-5-13,70,59,46,41,36,28,75,44,21,30.32,30.19,6,3,12,0.11
2013-5-14,75,58,40,56,46,39,96,69,34,30.38,30.20,6,2,12,0.00
2013-5-15,90,74,59,74,60,55,100,67,35,30.22,30.10,6,2,11,0.03
2013-5-16,83,65,63,69,35,-100,100,72,48,30.19,30.11,4,1,7,0.03
2013-5-26,77,67,57,60,58,56,97,75,50,30.36,30.29,5,0,7,0.00
2013-5-27,83,67,51,66,58,51,100,78,46,30.42,30.28,5,1,9,0.01
2013-5-28,83,70,58,67,61,-100,100,81,53,30.37,30.28,6,1,11,0.01
2013-5-29,85,72,61,69,65,61,100,81,53,30.38,30.30,6,1,9,0.01
2013-5-30,83,71,59,69,64,59,100,83,54,30.43,30.32,5,1,8,0.00
2013-5-31,85,72,62,70,66,62,100,82,53,30.38,30.25,6,1,12,0.00
2013-6-1,83,73,66,70,67,65,100,83,56,30.27,30.17,7,1,11,0.01
2013-6-2,77,71,67,74,68,-100,100,97,85,30.21,30.06,5,1,9,0.07
2013-6-3,81,75,70,74,71,69,99,88,69,30.12,30.00,3,1,5,0.06
2013-6-4,83,73,62,71,68,62,100,86,63,30.23,30.10,5,1,7,0.35
2013-6-5,80,73,68,73,69,66,100,89,77,30.24,30.12,5,1,11,0.78
2013-6-6,77,72,68,74,71,68,100,99,88,30.05,29.95,3,0,4,1.04
2013-6-7,86,71,66,74,69,66,100,94,61,29.99,29.83,5,1,10,0.83
2013-6-8,83,73,64,74,69,64,100,89,65,30.23,29.99,6,1,8,0.07
2013-6-9,83,71,66,78,70,66,100,97,73,30.29,30.20,4,0,8,0.86
2013-6-10,79,71,68,74,70,68,100,96,75,30.22,30.05,3,1,7,0.85
2013-6-11,91,76,66,72,67,-100,100,80,46,30.16,30.09,6,1,8,0.12
2013-6-12,93,77,66,81,73,65,100,88,60,30.17,30.07,4,1,6,0.44
2013-6-13,94,80,71,76,70,65,100,75,44,30.07,29.86,8,2,13,0.00
2013-6-14,85,74,62,67,61,57,95,66,42,30.20,29.96,6,2,13,0.00
2013-6-15,83,70,56,68,62,56,100,80,54,30.29,30.20,6,1,10,0.00
2013-6-16,86,73,60,71,66,60,100,81,53,30.28,30.18,5,1,10,0.00
2013-6-17,84,74,69,76,72,68,100,93,72,30.20,30.11,4,1,7,1.76
2013-6-18,83,77,70,76,71,66,95,81,71,30.06,29.94,4,2,9,0.54
2013-6-19,81,73,65,72,68,65,100,85,63,30.26,30.06,4,1,6,1.79
2013-6-20,82,70,64,71,67,64,100,91,65,30.37,30.25,4,1,9,0.07
2013-6-22,87,79,69,68,66,62,92,66,48,30.38,30.26,4,1,6,0.00
2013-6-23,70,70,69,70,69,67,100,99,92,30.36,30.30,1,0,2,0.23
2013-6-24,84,74,68,77,72,68,100,94,75,30.37,30.24,3,0,4,0.01
2013-6-25,87,75,67,77,72,67,100,92,72,30.30,30.18,2,0,3,0.46
2013-6-26,86,74,67,75,71,67,100,92,69,30.20,30.07,4,1,6,0.12
2013-6-27,88,78,70,80,74,68,100,88,70,30.10,29.90,6,2,15,0.13
2013-6-28,94,79,72,78,72,68,100,80,45,29.96,29.76,6,2,11,0.12
2013-6-29,87,76,65,73,70,65,100,82,59,29.86,29.78,5,1,8,0.02
2013-6-30,84,75,68,75,70,67,100,88,68,29.99,29.84,5,1,9,0.01
2013-7-1,83,73,69,74,71,69,100,92,70,30.11,29.96,4,1,7,0.26
2013-7-2,78,73,68,76,72,68,100,98,88,30.27,30.11,4,0,9,0.22
2013-7-3,81,72,65,76,71,65,100,98,81,30.37,30.25,4,1,8,1.08
2013-7-4,77,70,65,77,70,65,100,100,99,30.38,30.27,4,0,7,3.18
2013-7-5,88,73,68,76,71,68,100,94,65,30.40,30.32,7,1,15,1.71
2013-7-6,85,74,70,78,73,70,100,96,72,30.38,30.24,6,1,10,3.84
2013-7-7,83,76,72,78,74,72,100,95,77,30.33,30.22,6,1,11,1.39
2013-7-8,87,75,71,79,71,-100,100,94,64,30.34,30.24,4,0,5,1.06
2013-7-9,89,77,69,78,74,69,100,91,64,30.33,30.20,4,1,6,0.21
2013-7-10,85,74,69,79,69,-100,100,91,74,30.23,30.12,5,1,8,0.73
2013-7-18,84,81,76,78,78,76,99,88,81,30.27,30.23,0,0,0,0.00
2013-7-19,90,79,69,79,74,69,100,88,60,30.28,30.15,4,0,9,0.00
2013-7-20,87,75,71,79,73,-100,100,94,76,30.19,30.11,4,1,9,0.26
2013-7-21,85,74,68,80,73,68,100,97,79,30.16,30.10,3,0,5,0.29
2013-7-22,84,74,70,77,73,70,100,94,78,30.16,29.99,3,1,6,0.06
2013-7-23,89,77,70,78,72,69,100,85,53,30.05,29.94,6,1,8,0.27
2013-7-24,93,80,71,77,73,69,97,81,49,30.01,29.91,6,1,10,0.05
2013-7-25,84,73,66,76,70,66,100,91,66,30.17,29.99,4,1,6,0.26
2013-7-26,84,73,65,76,71,65,100,93,70,30.24,30.16,5,0,7,0.26
2013-7-27,81,75,69,78,74,69,100,96,86,30.18,30.05,3,1,7,2.93
2013-7-28,86,74,67,76,71,67,100,92,70,30.16,30.06,4,1,7,1.73
2013-7-29,87,71,63,75,68,63,100,92,58,30.31,30.16,3,0,4,2.68
2013-7-30,84,72,64,76,69,64,100,92,69,30.37,30.29,4,0,5,0.01
2013-7-31,79,72,69,77,72,69,100,98,86,30.33,30.13,3,0,6,0.09
2013-8-1,85,74,70,78,72,70,100,95,73,30.14,30.06,5,0,9,0.24
2013-8-2,87,75,66,76,71,66,100,88,61,30.19,30.08,4,0,5,0.21
2013-8-3,88,76,68,77,72,68,100,87,53,30.19,30.11,3,0,5,0.24
2013-8-4,89,78,68,73,69,65,100,77,52,30.19,30.09,6,2,16,0.00
2013-8-5,85,73,64,75,69,64,100,88,66,30.22,30.12,4,1,6,0.00
2013-8-6,81,74,70,76,72,70,100,96,80,30.20,30.12,3,0,4,0.08
2013-8-7,77,73,71,77,73,71,100,100,97,30.22,30.16,3,0,4,0.60
2013-8-8,84,76,71,79,74,71,100,95,79,30.21,30.16,4,1,5,0.01
2013-8-9,89,77,71,80,74,71,100,94,68,30.22,30.16,4,1,7,0.65
2013-8-10,85,76,70,80,75,70,100,97,84,30.27,30.19,2,0,4,2.76
2013-8-11,89,74,68,80,73,68,100,96,68,30.29,30.20,3,0,4,1.32
2013-8-12,89,74,69,80,73,69,100,98,65,30.23,30.12,3,0,4,2.49
2013-8-13,88,74,70,79,70,-100,100,90,69,30.13,29.97,5,1,10,0.29
2013-8-14,80,72,69,73,66,-100,99,87,72,30.21,30.03,4,1,8,0.18
2013-8-15,70,55,62,69,31,-100,100,79,77,30.30,30.20,4,0,8,0.02
2013-8-16,72,63,60,68,56,-100,100,90,76,30.32,30.22,3,1,6,0.00
2013-8-17,69,66,62,67,64,61,100,94,79,30.34,30.28,4,1,6,0.09
2013-8-18,76,67,64,73,64,-100,100,96,89,30.37,30.28,2,0,3,0.29
2013-8-19,75,64,67,73,49,-100,100,97,91,30.35,30.24,1,0,2,1.02
2013-8-20,80,70,64,75,66,-100,100,95,82,30.35,30.26,4,0,4,0.01
2013-8-21,78,72,68,77,72,68,100,99,90,30.39,30.27,2,0,3,1.38
2013-8-27,88,70,62,73,66,62,100,90,58,30.30,30.19,4,1,6,0.00
2013-8-29,78,76,75,77,76,75,99,98,97,30.13,30.09,3,1,4,0.00
2013-8-30,84,76,72,76,74,72,100,94,74,30.20,30.10,3,0,4,0.02
2013-8-31,84,74,68,78,73,68,100,95,77,30.13,30.05,5,1,7,1.08
2013-9-1,89,74,67,79,69,-100,100,90,70,30.07,29.96,4,1,7,0.01
2013-9-2,89,78,67,79,73,67,100,88,68,30.06,29.98,3,1,5,0.91
2013-9-3,89,82,68,73,70,67,99,70,53,30.07,30.02,3,2,5,0.05
2013-9-5,89,74,64,72,68,64,100,85,48,30.28,30.21,3,0,4,0.04
2013-9-6,84,70,60,70,66,60,100,88,60,30.35,30.22,3,0,6,0.00
2013-9-7,84,71,62,73,67,62,100,89,62,30.29,30.14,5,0,8,0.00
2013-9-8,84,70,64,75,65,-100,100,90,63,30.16,30.09,3,0,6,0.00
2013-9-9,87,73,65,77,70,65,100,91,64,30.30,30.16,3,0,3,0.00
2013-9-10,88,74,64,74,69,64,100,88,59,30.39,30.30,3,0,4,0.00
2013-9-11,69,67,66,69,67,66,100,100,100,30.37,30.34,0,0,0,0.00
2013-11-12,60,41,31,41,27,18,67,58,41,30.58,30.20,13,6,32,0.00
2013-11-13,50,33,28,25,21,18,83,63,31,30.65,30.56,3,1,7,0.00
2013-11-28,48,33,25,31,25,20,97,74,46,30.58,30.31,7,2,13,0.03
2013-11-29,55,38,26,33,29,26,100,75,34,30.71,30.56,4,1,7,0.00
2013-11-30,47,36,30,31,27,-100,95,73,51,30.75,30.50,6,1,11,0.00
2013-12-1,59,40,28,42,34,27,100,83,49,30.49,30.14,5,1,8,0.00
2013-12-2,60,46,32,45,40,32,100,81,57,30.14,29.93,5,1,7,0.00
2013-12-3,60,52,45,55,50,44,100,91,76,30.09,29.98,4,0,6,0.03
2013-12-4,58,55,53,58,55,53,100,100,100,30.19,30.07,0,0,0,0.07
2013-12-15,48,42,39,44,36,31,100,80,64,30.22,29.86,12,5,19,0.01
2013-12-16,61,45,33,41,35,31,91,71,44,30.26,30.19,5,2,8,0.00
2013-12-17,66,50,33,41,35,30,96,61,33,30.24,30.06,9,3,21,0.00
2013-12-18,55,43,36,29,23,16,64,48,23,30.40,30.21,13,3,28,0.00
2013-12-19,64,42,28,34,29,25,92,65,27,30.42,30.32,4,0,7,0.00
2013-12-20,62,49,34,53,41,33,96,77,45,30.35,30.23,7,2,11,0.00
2013-12-21,61,53,48,61,51,-100,100,96,87,30.26,30.14,3,0,3,0.25